Wind_Speed
17 17 16 16 17 18 19 19 19 20 20 20 20 21 20 20 20 20 20 19 19 19 20 20 20 21 21 22 22 23 23 23 23 23 23 23 24 23 22 22 22 21 21
18 18 18 18 18 19 20 20 21 21 21 21 21 21 21 21 22 21 21 21 21 21 21 21 22 22 22 23 23 23 24 24 24 24 24 25 25 25 24 24 23 23 22
19 18 19 19 19 20 20 21 21 21 21 20 20 21 22 22 22 23 22 22 22 22 22 23 23 23 23 24 24 25 25 25 25 26 26 26 27 27 26 25 25 25 24
19 19 19 20 20 20 21 22 22 21 20 21 21 21 22 22 22 23 22 23 23 24 24 24 23 24 24 25 25 25 26 26 26 26 27 27 28 29 28 27 27 26 25
19 20 20 20 20 21 22 22 21 21 21 21 21 21 21 22 22 23 23 23 23 24 24 24 24 24 25 25 26 26 26 26 26 26 28 29 30 30 29 28 28 27 26
20 20 21 21 21 21 22 22 22 22 22 23 23 22 22 23 24 24 24 24 25 25 26 26 25 25 25 26 27 27 27 27 27 26 27 28 29 30 30 29 29 29 28
22 22 22 22 22 23 23 23 23 23 23 24 24 24 24 24 25 25 26 26 26 27 27 27 27 27 27 27 28 28 29 29 29 27 28 28 29 30 30 30 30 29 29
23 23 23 23 24 24 24 24 24 24 24 24 24 25 25 25 26 26 27 27 28 28 28 28 29 29 29 29 30 30 30 30 30 29 29 29 29 29 30 29 29 29 29
23 23 24 25 25 25 26 26 26 26 26 26 26 26 26 26 27 27 28 28 29 29 29 29 30 30 31 31 31 30 30 30 30 30 29 29 29 29 30 30 29 29 29
24 24 25 25 26 26 27 27 27 27 27 28 28 28 28 28 28 29 29 30 30 30 31 31 31 31 31 32 32 31 31 30 31 31 31 31 30 30 30 31 30 30 30
25 26 26 26 26 27 27 28 28 28 28 29 29 29 29 29 30 30 30 31 31 32 32 33 33 33 33 32 32 32 32 32 33 32 32 31 30 30 30 31 31 30 30
26 27 28 28 27 28 28 28 29 29 29 29 30 30 30 30 31 32 32 32 33 33 33 33 33 33 32 32 32 32 32 32 32 32 31 31 31 30 31 32 32 33 32
28 28 29 29 29 29 30 30 30 31 31 30 30 31 31 32 32 33 33 33 33 33 33 33 32 32 32 31 31 31 32 31 31 31 31 31 31 31 31 31 32 32 32
30 30 30 31 31 30 31 31 30 30 30 30 31 31 32 33 33 33 33 33 33 33 32 31 31 31 32 32 31 31 31 31 30 31 31 31 31 31 31 31 32 32 33
31 32 32 32 32 32 32 31 31 31 31 32 32 33 33 33 33 33 33 33 33 33 33 32 32 32 32 32 31 31 31 31 30 30 30 31 32 31 32 32 32 32 33
33 33 33 33 33 33 33 32 32 33 33 33 34 33 34 34 34 34 33 33 33 33 33 33 33 32 31 31 30 30 30 30 30 30 31 31 31 32 33 33 33 33 33
35 35 34 34 34 34 33 33 34 34 34 34 34 34 34 34 34 33 33 33 33 32 31 31 32 32 31 31 31 31 31 31 32 31 31 32 32 32 32 33 33 33 33
34 34 34 35 34 34 33 34 34 35 35 35 35 34 34 34 34 34 34 33 32 32 31 31 31 31 31 32 32 32 32 32 31 31 31 32 33 33 33 33 33 33 33
33 33 34 34 33 32 33 33 34 34 35 35 35 34 34 34 33 33 33 32 31 31 31 31 31 30 31 32 32 32 32 32 32 31 32 32 32 33 33 33 33 33 32
33 33 34 33 32 32 32 33 33 33 33 34 34 34 33 33 33 32 32 32 32 31 31 32 32 31 31 32 32 32 33 33 33 32 32 32 32 33 33 32 32 32 32
34 34 33 33 33 33 33 33 33 33 33 33 33 33 33 33 33 32 32 32 32 32 33 33 33 32 32 32 33 33 34 34 33 33 33 33 33 33 33 32 32 31 31
34 33 33 33 33 34 34 33 33 32 32 32 32 32 32 32 32 32 32 32 33 33 33 33 33 33 33 33 33 33 34 34 34 33 34 34 34 34 33 33 32 32 31
34 34 34 34 34 34 34 33 32 32 32 32 32 32 32 32 32 32 32 33 33 34 34 33 33 33 33 33 33 33 33 34 34 34 34 34 34 34 33 32 32 32 32
34 34 35 35 35 34 34 34 33 33 32 32 32 32 32 32 32 32 32 33 34 34 33 33 33 33 33 33 33 33 33 34 34 33 32 32 32 33 33 33 33 33 33
34 35 35 35 34 34 34 34 33 33 33 32 32 32 32 32 32 32 32 32 32 32 32 32 31 32 32 32 32 32 32 32 33 33 33 32 32 31 32 32 32 33 33
34 34 34 34 33 33 33 33 33 32 32 32 32 32 31 31 31 31 31 31 31 30 31 31 31 31 31 31 31 31 31 31 32 32 32 31 31 31 31 31 32 33 33
Wind_Direction
290 291 289 287 285 281 280 280 279 278 278 278 278 278 278 277 278 277 276 273 274 275 276 275 273 270 266 264 263 263 263 263 263 261 261 260 260 260 260 261 261 262 264
285 286 287 287 287 284 282 280 280 279 278 278 278 277 277 277 276 275 275 275 274 275 276 276 275 272 269 267 266 264 264 264 264 263 261 260 259 259 260 260 260 261 263
284 284 285 286 287 287 287 281 279 279 278 276 277 277 278 278 276 274 274 275 275 276 277 278 276 273 271 269 267 265 266 267 265 263 262 260 260 260 260 260 260 260 262
283 283 283 284 286 286 286 283 280 279 278 276 278 279 278 278 278 275 273 274 275 275 277 278 276 274 272 271 270 268 268 268 266 264 262 261 260 260 260 260 260 260 262
282 283 283 284 286 287 286 285 282 279 278 277 278 281 281 280 279 277 274 274 275 275 276 277 277 276 274 273 271 270 269 269 268 266 264 263 262 261 260 259 260 260 262
279 280 281 282 284 287 287 286 284 281 279 279 279 280 281 281 281 280 277 275 275 276 276 276 276 275 274 274 272 271 270 269 270 269 268 265 263 261 259 258 258 260 262
279 279 279 280 282 284 284 284 284 281 279 280 280 280 281 282 282 282 280 278 278 278 276 275 275 275 274 274 274 273 272 270 269 270 269 267 265 262 260 259 259 260 262
280 279 280 281 282 283 282 282 281 281 280 279 279 280 281 281 282 282 281 280 279 279 278 275 274 274 274 274 274 274 273 271 269 269 268 267 264 262 260 260 260 261 263
283 280 280 281 282 282 281 279 280 281 281 280 278 279 280 280 281 281 280 280 279 279 278 277 276 275 275 274 274 274 273 271 270 267 266 266 265 263 261 261 262 263 265
285 283 281 281 282 282 283 281 281 282 281 280 279 279 279 280 280 281 280 280 279 279 278 278 277 275 275 273 272 273 272 270 269 267 265 265 265 263 262 261 262 264 264
285 284 283 282 282 283 284 283 282 281 280 280 279 279 279 280 280 280 281 281 280 279 278 276 275 274 274 273 271 271 270 268 267 265 264 264 264 264 264 263 263 263 265
285 284 284 282 282 284 284 284 283 282 281 281 281 280 280 280 280 281 281 280 280 279 277 276 274 273 275 274 272 271 270 268 266 264 264 263 263 263 263 264 264 265 265
284 285 285 284 283 284 284 284 284 283 281 280 281 280 280 281 282 282 282 282 281 280 278 277 275 274 273 273 271 270 269 269 267 265 265 264 264 264 264 266 266 265 265
284 285 285 284 284 284 284 283 282 282 282 281 281 281 281 282 281 282 282 282 281 280 279 276 274 273 274 273 271 269 269 268 267 266 265 265 264 263 263 263 263 264 264
282 283 283 283 283 283 284 283 281 282 283 284 283 281 281 281 281 280 281 281 280 279 277 275 274 272 272 272 270 267 267 266 266 266 266 265 263 263 263 262 261 262 263
282 283 283 283 282 282 282 282 282 282 284 284 284 283 282 281 281 280 280 280 279 278 276 274 273 272 272 270 268 267 266 266 266 267 267 267 266 266 265 264 263 263 264
285 286 285 283 283 283 282 281 282 283 284 285 284 282 281 281 280 280 280 280 279 277 275 274 273 272 270 269 268 267 266 265 266 266 267 268 267 267 267 265 264 264 264
284 285 286 285 284 284 283 283 284 284 284 284 283 282 282 281 280 280 280 279 277 277 276 275 274 273 270 268 267 267 266 265 267 268 268 269 267 267 267 267 265 264 263
284 284 286 285 284 284 284 284 284 283 283 283 283 282 282 281 280 279 278 278 278 277 276 275 274 272 270 269 268 267 266 266 268 268 267 268 268 267 267 267 266 264 264
285 285 286 286 286 286 286 285 284 284 283 283 282 281 281 280 279 277 277 276 277 277 276 276 275 273 270 269 268 267 266 266 267 267 267 267 267 267 266 267 266 265 263
286 287 287 287 287 287 287 287 286 285 285 285 284 282 281 280 279 278 276 276 276 276 276 275 275 273 272 271 270 268 266 266 266 266 265 264 266 267 266 265 265 265 264
285 285 286 288 289 289 288 287 287 286 285 285 284 283 281 279 278 277 276 275 275 275 276 275 274 273 272 272 271 270 267 266 266 266 265 265 265 265 265 265 264 263 264
283 284 285 286 288 288 288 287 286 285 285 284 284 282 280 278 278 277 277 276 276 277 276 275 274 273 272 271 271 270 268 266 265 265 266 267 266 265 263 263 263 263 264
282 283 284 285 286 287 287 286 285 284 284 283 283 282 280 278 278 278 277 277 277 277 276 275 274 274 273 271 271 270 268 266 265 265 265 266 266 264 263 263 263 263 264
282 283 284 284 285 285 285 285 284 283 283 283 283 283 282 280 280 279 277 277 277 275 275 275 274 273 273 271 270 270 269 268 267 266 266 266 264 263 262 262 263 263 264
283 284 284 285 284 284 285 285 285 284 284 283 283 283 282 281 281 280 278 278 278 278 277 276 275 273 273 271 270 269 269 269 268 267 267 266 264 263 262 262 263 264 265
Height
5801 5800 5799 5797 5796 5795 5794 5793 5792 5791 5790 5789 5788 5788 5787 5786 5786 5785 5784 5784 5784 5783 5782 5782 5781 5781 5781 5782 5782 5783 5783 5784 5785 5785 5785 5786 5786 5786 5787 5787 5787 5788 5788
5796 5795 5794 5792 5791 5790 5789 5787 5786 5785 5784 5784 5783 5782 5781 5780 5780 5779 5778 5778 5778 5777 5777 5776 5775 5775 5775 5775 5775 5776 5776 5777 5777 5778 5778 5778 5779 5779 5780 5780 5781 5781 5781
5790 5789 5788 5787 5786 5784 5782 5781 5780 5779 5778 5777 5777 5776 5775 5774 5773 5773 5772 5772 5771 5771 5770 5770 5769 5769 5769 5769 5768 5769 5769 5769 5769 5770 5771 5771 5771 5771 5772 5773 5773 5774 5774
5784 5783 5782 5781 5780 5778 5777 5775 5774 5773 5772 5771 5770 5769 5768 5768 5767 5766 5766 5765 5765 5764 5764 5763 5762 5762 5762 5761 5761 5761 5761 5761 5761 5761 5762 5762 5763 5763 5763 5764 5765 5766 5766
5778 5777 5776 5775 5774 5772 5771 5769 5768 5766 5765 5764 5764 5763 5762 5761 5760 5759 5759 5758 5758 5757 5757 5756 5755 5755 5754 5754 5753 5753 5753 5753 5753 5753 5753 5754 5754 5754 5755 5756 5757 5757 5758
5772 5771 5770 5769 5767 5766 5764 5762 5761 5760 5759 5758 5757 5756 5755 5754 5753 5752 5751 5751 5750 5750 5749 5748 5748 5747 5746 5746 5745 5745 5744 5744 5744 5744 5744 5745 5745 5745 5746 5747 5748 5749 5750
5765 5764 5763 5762 5761 5759 5758 5756 5754 5753 5752 5751 5750 5749 5748 5747 5745 5744 5743 5743 5742 5741 5741 5740 5740 5739 5738 5738 5737 5736 5736 5735 5736 5736 5736 5736 5736 5737 5737 5738 5739 5740 5741
5758 5757 5756 5755 5753 5752 5750 5749 5747 5746 5745 5743 5742 5741 5740 5739 5738 5737 5735 5735 5734 5733 5732 5731 5731 5730 5729 5729 5728 5728 5727 5727 5727 5727 5727 5727 5727 5727 5728 5729 5729 5730 5731
5751 5750 5748 5747 5746 5744 5743 5741 5740 5738 5737 5736 5734 5733 5732 5731 5729 5728 5727 5726 5725 5724 5723 5722 5721 5721 5720 5719 5719 5718 5718 5717 5717 5717 5717 5717 5718 5718 5719 5720 5720 5721 5722
5743 5742 5741 5739 5737 5736 5734 5733 5731 5730 5728 5727 5726 5724 5723 5722 5721 5719 5718 5717 5716 5715 5713 5712 5711 5710 5710 5708 5708 5708 5708 5708 5708 5708 5708 5708 5708 5709 5709 5710 5711 5712 5712
5736 5734 5733 5731 5729 5728 5726 5724 5723 5721 5720 5718 5717 5716 5714 5713 5712 5710 5708 5707 5706 5705 5703 5702 5701 5700 5699 5698 5698 5697 5697 5697 5697 5697 5698 5698 5698 5699 5700 5700 5701 5702 5703
5728 5726 5725 5722 5720 5719 5717 5715 5713 5712 5710 5709 5707 5706 5705 5703 5702 5700 5699 5697 5696 5694 5693 5692 5690 5689 5688 5687 5687 5687 5687 5686 5686 5687 5688 5688 5689 5690 5690 5690 5691 5692 5692
5719 5718 5716 5714 5711 5709 5707 5706 5704 5702 5701 5699 5698 5696 5695 5693 5691 5690 5688 5686 5684 5683 5682 5680 5679 5678 5677 5677 5676 5676 5676 5676 5676 5677 5678 5678 5679 5679 5680 5680 5681 5681 5682
5710 5709 5707 5705 5702 5700 5698 5696 5694 5692 5691 5689 5688 5686 5685 5683 5681 5679 5677 5676 5674 5672 5671 5670 5669 5668 5667 5666 5666 5666 5666 5666 5666 5667 5668 5668 5669 5669 5670 5670 5671 5672 5672
5701 5699 5697 5695 5693 5690 5688 5686 5684 5682 5681 5679 5678 5676 5674 5672 5670 5669 5667 5665 5663 5662 5660 5659 5658 5657 5657 5656 5656 5656 5656 5657 5657 5657 5658 5658 5659 5659 5660 5660 5661 5661 5662
5691 5689 5687 5685 5682 5680 5678 5676 5674 5672 5671 5669 5667 5665 5663 5661 5659 5658 5656 5654 5652 5651 5650 5649 5648 5647 5647 5647 5647 5647 5647 5647 5647 5648 5648 5648 5649 5649 5649 5649 5650 5651 5651
5680 5678 5676 5674 5671 5669 5667 5665 5663 5662 5660 5658 5655 5654 5652 5650 5649 5647 5645 5643 5642 5640 5639 5639 5638 5637 5637 5637 5637 5637 5637 5637 5637 5638 5638 5638 5638 5639 5639 5639 5639 5640 5640
5669 5666 5664 5662 5660 5658 5656 5654 5652 5650 5649 5646 5644 5642 5641 5639 5638 5636 5634 5632 5631 5630 5629 5628 5628 5627 5626 5626 5626 5627 5627 5627 5627 5627 5628 5628 5628 5628 5628 5629 5629 5629 5630
5658 5656 5654 5651 5649 5647 5645 5643 5641 5639 5637 5635 5633 5631 5629 5628 5626 5625 5623 5622 5621 5620 5619 5618 5617 5616 5615 5616 5616 5616 5616 5616 5616 5617 5617 5617 5618 5618 5618 5618 5619 5619 5619
5647 5645 5643 5641 5639 5637 5635 5632 5630 5628 5626 5624 5622 5620 5618 5617 5615 5614 5612 5611 5610 5609 5608 5607 5606 5605 5605 5605 5605 5605 5605 5606 5606 5606 5607 5607 5607 5607 5607 5608 5608 5608 5609
5636 5634 5632 5630 5628 5626 5624 5622 5619 5617 5615 5613 5611 5609 5607 5606 5604 5603 5602 5601 5600 5599 5597 5596 5595 5594 5594 5594 5594 5594 5594 5594 5595 5595 5596 5596 5596 5596 5597 5597 5597 5598 5599
5626 5624 5622 5620 5618 5616 5614 5611 5609 5606 5604 5602 5600 5599 5596 5595 5594 5592 5591 5590 5589 5587 5586 5585 5584 5584 5583 5583 5583 5582 5583 5583 5583 5584 5584 5585 5585 5585 5586 5586 5587 5588 5588
5615 5614 5612 5610 5608 5606 5603 5601 5598 5596 5594 5592 5590 5588 5586 5584 5583 5582 5581 5580 5578 5577 5575 5574 5574 5573 5572 5572 5572 5571 5571 5572 5572 5573 5573 5573 5574 5574 5575 5575 5576 5577 5578
5605 5603 5602 5600 5597 5595 5593 5590 5588 5586 5584 5581 5579 5577 5576 5574 5573 5571 5570 5569 5568 5566 5565 5564 5563 5562 5561 5561 5561 5560 5560 5560 5561 5561 5562 5562 5562 5563 5564 5564 5565 5566 5567
5594 5593 5591 5589 5587 5585 5582 5580 5577 5575 5573 5571 5569 5567 5566 5564 5562 5561 5560 5558 5557 5556 5555 5554 5553 5552 5551 5551 5550 5550 5550 5550 5550 5550 5550 5551 5551 5552 5553 5554 5554 5555 5556
5584 5582 5580 5578 5576 5574 5572 5570 5568 5565 5563 5561 5559 5557 5555 5554 5552 5551 5549 5548 5547 5546 5545 5544 5543 5542 5542 5541 5540 5540 5539 5539 5539 5539 5540 5540 5541 5541 5542 5543 5544 5544 5545